Wind_Speed
27 24 23 22 23 25 26 24 20 17 15 15 17 19 21 22 22 23 23 23 25 26 25 25 25 25 27 28 29 30 31 32 33 30 26 25 25 26 27 28 28 27
22 21 22 24 25 23 20 16 14 14 15 18 20 22 22 21 20 19 19 19 20 20 20 20 22 25 27 29 29 31 32 32 31 27 24 25 25 25 27 29 31 31
22 23 23 23 22 19 17 16 17 17 19 21 22 21 20 18 17 18 19 20 21 20 20 19 20 23 25 26 27 27 28 28 27 25 24 25 26 26 28 28 31 33
24 23 22 20 21 21 20 21 21 22 22 22 21 20 19 20 20 20 21 24 25 24 24 22 21 22 23 24 24 24 25 25 25 25 25 27 27 27 28 27 28 32
23 22 21 21 22 23 23 22 23 23 22 22 21 21 22 23 24 23 23 24 25 25 24 23 23 24 25 26 27 27 27 26 26 27 27 28 28 27 28 27 28 32
22 22 23 22 22 22 22 22 23 23 23 23 23 23 23 24 25 25 24 23 23 23 23 23 23 24 25 26 27 27 27 27 27 27 27 28 28 28 27 28 30 32
23 23 23 22 22 22 23 23 23 24 24 23 23 23 24 24 24 24 24 23 23 22 22 22 23 23 24 25 25 26 28 27 24 22 22 24 27 30 29 29 32 31
24 24 23 23 24 24 24 24 24 24 23 23 23 23 23 23 23 23 22 22 22 22 21 21 21 23 26 26 26 25 24 21 18 18 20 21 23 27 30 30 30 29
24 24 25 25 25 24 24 24 24 24 23 23 23 22 21 21 21 20 20 19 19 19 19 19 20 22 23 23 21 20 18 17 17 18 18 19 21 20 24 29 28 26
25 25 25 25 25 24 24 24 24 23 23 22 22 22 21 21 20 20 20 20 20 20 20 21 21 20 19 19 19 18 17 18 19 18 18 20 22 20 20 25 28 27
25 25 25 25 25 25 25 24 24 23 23 22 22 22 21 21 21 20 20 21 22 21 21 22 22 21 22 24 25 23 20 19 20 20 20 22 23 22 21 21 25 28
26 25 25 26 25 25 25 25 24 24 23 23 22 22 22 21 21 21 21 22 22 22 22 23 23 23 24 27 28 27 24 23 23 21 21 22 24 25 23 20 21 27
26 25 26 26 25 26 25 25 25 24 23 23 22 22 22 22 22 22 23 22 23 23 23 23 24 24 26 28 30 30 29 29 27 23 21 22 25 26 24 21 20 22
26 26 26 26 26 26 26 26 25 24 24 23 23 22 22 22 22 22 22 21 22 22 22 22 22 23 25 27 30 30 30 30 30 27 25 26 29 29 25 21 19 18
27 27 27 27 27 27 26 26 25 25 25 24 23 22 21 21 21 21 20 20 20 20 20 20 21 21 23 26 28 29 29 30 31 31 28 26 28 30 25 21 19 18
28 28 27 27 27 27 27 26 26 26 25 24 23 22 22 22 21 20 20 21 21 22 22 22 22 24 25 25 26 26 27 28 28 28 26 22 23 27 26 22 20 19
28 28 28 28 28 28 27 27 27 27 26 25 24 24 24 23 22 21 22 23 23 24 24 25 25 26 25 24 25 25 25 25 24 23 22 20 20 23 25 25 22 21
28 29 29 29 29 28 28 28 28 27 26 26 26 27 26 25 23 23 24 24 24 24 24 25 26 25 23 23 24 24 24 24 23 22 21 21 20 20 22 24 23 22
29 29 29 30 30 29 29 29 28 28 29 29 30 30 28 26 26 25 24 24 23 24 24 25 25 24 22 22 23 24 24 24 23 23 22 22 21 20 21 23 24 23
29 29 29 30 30 29 29 29 29 30 32 32 31 30 29 28 28 26 25 24 23 23 24 25 24 22 20 20 21 23 23 23 24 25 24 23 23 22 22 24 26 24
30 30 30 30 30 30 32 32 32 33 34 34 32 30 29 29 28 27 26 25 24 23 23 23 23 21 20 19 20 21 22 23 25 26 26 26 25 24 25 26 27 26
31 32 32 32 32 33 34 35 36 36 35 34 32 31 30 29 29 28 27 27 27 24 22 22 22 21 19 19 19 19 20 23 27 28 26 26 26 25 25 26 27 28
32 32 32 33 34 35 35 35 37 38 37 34 32 32 32 31 31 30 28 28 28 25 23 23 24 21 19 19 18 17 18 18 22 29 26 24 26 26 25 25 27 28
34 34 33 33 34 36 36 37 37 37 37 34 31 31 31 31 31 31 30 28 27 25 24 23 23 21 18 18 19 17 18 19 12 22 26 23 23 24 23 23 26 28
36 36 34 34 35 36 37 37 36 36 35 33 31 30 31 31 30 29 29 28 26 25 25 23 22 21 18 17 18 17 16 17 12 7 15 18 21 22 23 24 25 26
36 36 35 35 35 36 36 36 35 34 33 32 31 31 31 31 30 27 27 27 27 25 25 24 23 21 19 16 17 17 15 13 12 7 2 4 8 12 16 20 23 24
Wind_Direction
309 307 304 302 301 299 298 296 294 294 295 297 297 298 297 295 293 290 286 283 282 280 278 276 274 272 273 275 277 280 281 281 280 276 270 266 263 260 258 258 258 258
314 311 307 305 303 300 298 298 302 303 301 300 298 295 293 292 292 289 288 288 286 282 277 271 269 270 271 274 276 279 280 278 274 270 265 262 261 259 255 253 256 257
317 313 309 308 305 302 302 301 301 303 303 300 297 292 289 290 293 294 294 295 295 292 287 281 277 273 272 273 274 274 273 273 270 265 262 260 259 257 254 251 252 255
316 313 312 311 309 307 305 303 300 300 300 298 294 289 288 290 290 291 293 293 293 292 289 284 279 273 270 269 268 268 269 270 269 266 263 261 258 255 252 250 249 251
315 314 315 314 312 307 304 302 300 299 297 294 292 289 288 288 286 287 289 288 286 286 284 281 278 274 271 269 268 269 270 270 270 267 263 261 258 253 250 248 247 248
316 315 315 314 312 309 305 303 301 299 297 294 292 289 287 286 285 285 284 282 279 277 275 274 273 272 269 267 267 267 267 267 266 264 262 262 259 251 247 245 246 247
320 317 316 315 313 311 307 304 302 299 297 296 293 290 288 286 285 284 282 280 277 273 270 268 267 268 267 266 264 264 264 263 263 265 270 273 263 248 243 246 246 245
320 319 318 317 315 312 308 306 304 301 299 297 294 291 289 287 285 284 281 278 276 271 267 266 266 268 269 266 261 260 261 262 266 273 280 286 275 250 241 246 249 244
321 320 319 317 315 313 311 309 307 304 301 298 295 292 289 287 285 283 280 278 278 276 273 273 272 272 271 266 261 262 267 271 274 276 278 287 289 272 250 246 246 244
323 322 319 318 317 314 313 312 309 306 304 300 298 295 291 288 284 281 279 279 279 280 280 278 276 277 279 277 275 277 278 275 273 274 278 284 288 290 275 254 244 241
323 322 320 319 318 316 314 313 311 309 306 303 300 296 293 290 286 282 279 277 277 277 276 275 274 276 279 279 279 279 276 272 272 275 279 282 284 286 286 271 249 239
324 323 322 321 319 318 316 314 312 310 307 305 302 298 295 291 287 283 280 277 276 274 272 272 273 273 275 276 276 277 275 273 274 275 275 278 282 283 285 285 264 243
324 324 323 321 319 317 316 315 313 311 308 306 303 299 296 291 288 284 280 278 275 273 271 269 270 271 272 274 273 273 273 273 273 272 271 274 279 281 282 285 278 253
324 323 321 320 318 317 315 314 313 312 309 307 304 300 296 291 288 284 281 278 274 272 269 268 267 267 268 270 271 269 268 270 270 268 268 271 275 278 276 275 279 269
323 321 320 320 318 317 315 314 313 312 309 306 302 299 295 291 286 283 280 277 274 271 269 267 265 264 264 266 267 267 266 267 268 269 267 267 270 274 273 270 274 277
322 321 320 320 319 317 316 314 313 311 309 307 303 299 298 294 288 283 280 277 276 277 277 275 272 270 268 264 260 260 263 264 267 268 264 257 257 265 270 271 271 272
322 321 320 319 319 318 316 315 314 311 309 306 303 302 303 301 294 290 288 286 284 283 283 281 279 279 273 263 257 254 254 256 257 259 257 252 249 254 262 266 267 268
323 321 320 319 319 318 316 316 314 311 311 310 310 313 314 310 305 302 299 298 294 290 288 285 285 286 276 263 258 254 250 249 249 249 250 250 246 245 251 257 261 264
323 322 320 319 319 318 317 316 315 314 316 318 320 323 321 316 314 311 307 305 302 296 294 291 291 292 282 267 260 256 251 247 245 244 244 244 242 239 242 248 252 256
324 322 320 319 318 319 319 317 316 318 322 324 324 324 324 320 319 317 313 312 310 304 301 299 300 302 296 278 265 257 252 247 243 241 240 239 239 236 237 243 247 247
324 323 321 320 319 320 322 322 322 323 326 329 328 326 324 322 321 321 320 320 319 316 311 306 309 314 308 292 276 263 254 245 240 239 238 237 238 236 234 239 243 244
325 323 322 321 321 321 323 326 327 328 330 331 330 328 326 325 326 325 324 326 328 328 322 315 318 321 313 301 293 280 267 252 238 232 233 234 235 235 234 236 240 242
324 323 321 321 322 322 322 324 327 329 331 331 330 329 328 328 329 329 327 327 329 330 326 321 325 331 324 315 310 303 302 290 247 226 225 229 231 233 233 233 236 238
325 324 322 321 322 324 324 324 326 328 330 331 329 327 327 328 329 330 329 331 330 328 327 323 326 336 336 329 323 315 321 331 287 225 219 223 227 229 229 230 235 237
326 326 324 323 323 324 325 325 326 326 328 330 328 326 327 327 328 327 327 331 332 330 331 329 328 337 339 331 328 321 321 336 334 249 220 222 223 224 226 228 234 238
327 327 326 325 324 325 326 326 326 326 327 328 328 328 328 328 328 325 323 327 330 330 335 337 332 335 337 329 323 320 316 321 330 335 318 245 228 221 223 226 230 236
Height
801 799 797 795 793 792 790 788 787 785 784 784 783 781 780 779 779 778 777 776 775 774 774 774 773 773 773 772 772 772 771 770 769 768 768 768 767 767 767 767 767 767
799 797 795 793 791 789 788 786 785 784 783 782 781 779 778 777 776 775 774 773 772 771 771 771 770 770 770 769 769 769 768 766 765 765 765 764 763 763 762 762 762 763
797 795 793 791 789 787 786 785 783 782 781 779 778 777 775 774 773 772 771 770 769 769 768 768 767 767 767 766 766 765 764 763 761 762 761 760 759 759 757 757 758 758
795 793 792 790 788 786 785 783 782 780 778 777 775 774 773 772 771 770 769 768 767 766 765 765 764 764 763 763 762 761 760 759 758 758 757 755 755 754 753 753 753 754
794 792 790 789 786 785 783 781 779 778 776 775 773 772 770 769 768 767 766 765 764 763 762 761 761 760 760 759 758 757 756 756 755 754 753 751 750 749 749 749 749 749
793 791 789 787 785 783 781 779 777 775 774 772 770 769 768 766 765 763 762 761 760 759 758 757 757 756 756 755 754 753 752 752 751 750 748 746 745 744 744 745 744 745
791 789 787 785 783 781 779 777 775 773 771 769 768 766 764 763 762 760 759 757 756 755 754 753 753 752 751 750 750 749 748 748 746 745 743 742 740 739 739 740 740 741
790 787 785 783 781 778 776 774 772 770 768 766 764 763 761 760 758 757 755 754 752 751 750 750 749 748 747 746 745 745 744 743 742 741 740 738 737 735 735 736 736 736
789 786 783 781 779 776 773 771 769 767 765 763 761 759 758 756 755 754 752 751 749 748 747 746 745 744 743 742 741 741 740 739 738 737 737 736 734 732 732 732 733 732
788 785 782 779 776 774 771 769 767 764 762 760 758 756 755 753 752 750 749 748 747 745 744 743 742 741 740 738 738 737 737 736 735 734 734 733 731 730 729 729 729 729
787 783 781 777 774 772 769 766 764 762 760 757 755 753 751 750 749 747 746 745 743 742 741 740 739 738 737 735 735 734 734 733 732 731 730 730 728 727 726 725 725 725
785 782 779 776 773 770 767 764 762 759 757 755 753 751 748 747 746 744 743 741 740 739 738 736 735 734 733 732 731 730 730 729 728 728 727 726 726 725 723 722 722 721
784 781 778 775 772 769 765 763 760 757 755 752 750 748 746 744 742 741 739 738 736 735 734 733 731 730 729 728 727 727 726 725 725 724 724 723 722 722 721 720 719 718
783 780 777 773 770 767 764 761 758 755 752 750 747 745 743 741 739 737 735 734 732 731 730 729 727 726 725 724 723 723 722 722 721 721 721 720 719 719 718 718 717 716
782 779 775 772 769 765 762 759 756 753 750 747 745 742 739 737 735 733 732 729 728 727 725 724 723 721 720 720 719 718 718 718 717 717 717 716 716 715 715 715 714 714
781 777 773 770 767 763 760 757 753 750 747 744 742 739 736 734 731 729 728 725 724 722 720 719 718 716 715 715 715 715 714 714 714 713 713 713 712 711 711 711 711 711
779 776 772 768 765 762 758 755 751 748 745 742 739 736 733 730 728 726 724 722 720 718 716 715 713 711 710 710 710 711 711 711 710 710 709 709 709 708 708 708 708 708
778 774 771 767 763 760 756 753 749 746 742 739 736 733 730 727 725 722 720 718 716 714 712 710 708 707 706 706 706 707 707 707 707 706 706 705 705 705 705 705 705 706
777 773 769 765 762 758 754 751 747 743 740 737 733 730 727 724 722 720 717 715 713 711 709 707 704 703 702 702 702 702 703 703 703 703 702 702 701 701 702 702 703 703
776 772 768 764 760 757 753 749 746 742 738 735 731 727 725 722 719 717 714 712 710 708 705 703 701 699 699 698 698 698 698 699 698 698 698 698 697 698 698 699 700 700
775 771 767 763 759 755 752 747 744 740 736 733 729 726 723 720 717 714 712 709 707 705 703 700 698 696 695 694 694 694 694 694 693 693 693 693 693 693 694 695 696 697
774 770 765 761 757 753 749 745 742 738 734 731 728 724 721 718 715 712 710 707 704 703 701 698 695 694 693 692 691 690 689 688 687 687 688 688 688 689 690 691 692 694
774 769 764 760 756 751 748 744 740 736 733 730 727 724 720 717 714 711 708 706 703 700 699 696 693 691 690 689 687 686 685 683 681 681 682 684 684 685 686 687 688 689
773 769 764 759 755 751 747 743 740 736 732 730 727 723 719 716 713 710 706 704 702 699 697 695 692 689 688 686 685 683 682 680 677 677 678 680 681 682 683 684 685 685
772 768 764 759 755 751 747 743 739 736 732 729 726 723 719 716 713 710 706 702 700 698 695 693 691 688 687 685 683 682 681 679 677 676 676 677 678 679 680 681 681 682
771 767 763 759 754 750 746 742 739 735 732 729 725 722 719 715 712 709 705 701 699 696 694 691 689 687 685 684 682 681 680 679 678 677 676 676 676 677 678 678 679 679